Temp
39 44 43 43 40 36 34 37 35 43 39 50 47 48 48 46 45 44 43 43 42 42 42 43 43 43 44 44 44 44 44 44 44 42 40 40 40 40 40 39 39 39 38 37
36 42 41 39 43 42 39 38 38 38 40 47 50 47 47 47 44 43 42 43 43 44 44 44 43 43 43 43 43 46 45 44 43 41 41 40 40 39 39 38 37 36 36 36
34 37 37 32 39 41 41 41 41 36 42 45 44 46 44 44 44 42 42 43 43 43 43 43 43 43 42 43 45 44 43 44 43 43 42 40 40 39 37 35 34 34 33 34
26 33 21 41 45 46 43 44 43 43 44 45 42 38 39 43 42 43 43 43 43 43 43 42 42 43 43 44 43 43 42 42 41 39 39 39 37 35 33 32 32 32 32 33
25 26 35 42 42 41 41 40 42 42 43 41 41 41 38 41 43 41 41 41 40 41 41 41 41 43 43 41 41 40 39 38 38 38 36 35 33 31 32 31 31 31 33 32
26 24 23 37 44 46 44 34 43 42 41 40 39 35 32 38 41 41 42 42 41 42 42 41 40 41 39 38 37 37 37 37 37 35 33 32 31 30 31 29 30 31 32 31
22 26 33 42 46 46 34 35 42 41 39 39 36 35 37 41 41 41 41 41 41 40 38 37 39 39 36 36 35 37 36 35 34 33 32 32 30 30 29 29 30 29 31 31
24 20 25 45 45 41 42 39 41 39 37 35 36 38 39 40 39 39 38 38 39 37 37 37 38 37 34 33 34 34 33 32 31 31 33 33 29 29 30 28 28 28 28 29
34 34 42 43 42 42 44 43 40 39 38 39 38 37 38 37 37 37 37 36 37 36 35 35 35 34 31 31 32 32 31 30 30 31 31 31 29 29 29 28 27 27 27 27
37 40 41 43 43 45 44 42 41 40 40 41 37 38 36 37 36 36 36 35 36 34 32 31 32 32 30 32 32 31 30 30 30 29 30 30 30 30 28 26 25 26 26 24
37 40 41 43 44 43 40 41 41 41 41 39 38 37 36 35 34 34 34 34 33 31 30 30 30 30 30 31 31 30 30 30 29 29 28 28 28 28 28 28 27 25 25 25
36 45 44 42 42 42 41 40 40 39 37 38 38 35 35 33 33 33 32 32 30 29 28 28 29 29 30 30 30 28 27 27 27 27 26 26 25 25 29 28 30 30 30 26
45 43 39 38 39 40 39 38 39 37 37 35 35 34 33 31 32 32 30 30 28 27 28 28 28 27 28 28 28 27 24 25 25 25 24 23 23 22 20 25 27 27 28 28
41 42 38 38 36 38 38 38 38 36 36 35 34 33 32 30 29 29 28 28 29 28 28 28 27 27 27 27 26 25 25 23 23 22 21 22 21 22 21 18 18 20 25 26
40 40 40 37 37 36 37 36 34 32 32 31 32 31 30 28 27 27 28 30 30 28 27 27 26 26 27 27 25 24 24 22 22 21 22 22 22 20 19 19 20 20 21 22
37 37 37 36 35 36 35 34 31 30 30 30 29 29 29 28 28 27 28 28 26 24 25 21 24 27 28 27 24 23 22 21 21 21 21 20 20 19 19 19 18 18 18 19
34 31 32 33 34 34 34 34 32 30 30 29 28 29 28 28 27 26 26 27 27 26 26 25 25 27 26 25 22 21 21 21 20 21 19 19 19 18 17 17 18 18 18 21
43 41 40 37 34 32 31 31 30 30 29 29 29 28 24 23 25 24 24 26 23 22 25 26 26 25 24 23 22 21 20 20 19 18 18 19 16 18 18 18 17 17 18 20
40 38 37 36 35 32 31 30 30 30 29 28 26 25 26 24 26 26 26 19 19 22 23 25 25 22 21 21 20 20 19 17 17 17 18 16 17 17 16 16 16 17 17 16
37 36 35 33 33 32 30 30 30 29 29 28 23 21 20 16 18 18 23 22 23 22 25 24 22 20 19 19 18 17 17 16 15 16 16 15 16 14 15 14 15 16 14 14
33 33 32 31 30 31 30 28 28 27 27 24 23 19 20 19 16 15 19 18 23 22 23 20 19 17 17 14 15 16 15 14 13 13 13 13 12 13 12 13 13 13 12 12
32 30 28 29 28 27 28 29 28 23 21 19 16 17 17 18 16 18 17 19 21 16 20 18 16 12 12 11 14 13 12 12 12 12 12 12 11 10 10 10 10 10 10 10
30 29 28 26 25 23 23 23 23 21 19 18 17 19 21 21 20 13 10 19 18 13 16 14 8 7 5 10 10 9 8 9 9 11 10 10 10 10 9 8 8 9 8 8
29 28 26 25 24 23 21 22 25 21 18 19 18 18 21 18 18 19 16 9 5 3 6 8 3 2 -2 4 4 4 6 6 8 10 10 7 9 8 7 5 6 7 7 7
28 26 25 25 26 25 26 25 22 23 23 24 22 22 21 20 11 11 9 8 8 8 5 0 -1 -3 -1 -1 1 1 3 7 8 7 8 6 6 4 3 4 3 4 4 5
28 28 28 29 27 27 26 26 22 21 21 19 19 17 15 15 13 11 8 5 6 3 1 -4 -6 -5 -4 1 0 -0 3 5 5 6 5 5 4 3 1 2 1 2 2 3
28 28 27 26 27 27 26 24 22 19 19 17 16 15 12 9 7 7 -2 -4 -5 -6 -9 -9 -5 -1 -1 -2 -1 -0 1 2 -0 2 2 1 1 -1 -1 -1 -1 -0 2 3
MSLP
1023.23 1023.16 1023.36 1023.40 1024.06 1024.90 1025.40 1024.80 1024.70 1022.82 1022.61 1020.51 1020.86 1020.90 1021.11 1021.69 1022.49 1023.15 1023.77 1024.55 1025.25 1025.79 1026.35 1026.87 1027.48 1028.12 1028.67 1029.19 1029.58 1029.89 1030.22 1030.47 1030.61 1030.65 1030.82 1031.09 1031.10 1030.88 1030.75 1030.69 1030.41 1030.17 1029.94 1029.69
1024.07 1023.81 1023.78 1023.71 1023.46 1023.63 1024.02 1023.99 1023.70 1022.94 1022.08 1021.08 1020.90 1021.05 1021.62 1022.16 1022.87 1023.65 1024.46 1025.14 1025.80 1026.42 1027.07 1027.76 1028.29 1028.82 1029.27 1029.72 1029.98 1030.15 1030.40 1030.52 1030.63 1030.84 1031.11 1031.12 1030.95 1030.83 1030.80 1030.56 1030.30 1030.09 1029.76 1029.41
1025.28 1024.80 1024.27 1023.65 1022.14 1022.48 1022.64 1022.53 1022.48 1022.60 1021.71 1021.60 1021.74 1022.24 1022.68 1022.68 1023.38 1024.34 1025.23 1025.98 1026.69 1027.31 1028.01 1028.58 1028.97 1029.25 1029.64 1029.99 1030.25 1030.53 1030.67 1030.74 1030.86 1031.05 1031.11 1031.12 1031.13 1031.07 1030.96 1030.73 1030.39 1030.07 1029.76 1029.47
1026.41 1025.77 1024.90 1021.97 1021.40 1021.31 1021.52 1021.58 1021.69 1021.72 1021.78 1022.21 1022.66 1023.63 1023.84 1023.56 1024.22 1025.22 1026.08 1026.99 1027.66 1028.11 1028.59 1029.03 1029.43 1029.84 1030.19 1030.49 1030.77 1030.98 1031.24 1031.44 1031.58 1031.63 1031.58 1031.44 1031.33 1031.25 1031.06 1030.76 1030.45 1030.10 1029.73 1029.34
1027.26 1026.59 1024.20 1021.74 1021.14 1021.00 1020.97 1021.22 1021.38 1021.83 1022.18 1022.75 1023.37 1023.80 1025.08 1025.28 1025.46 1026.10 1026.77 1027.65 1028.41 1028.96 1029.50 1029.99 1030.35 1030.66 1030.99 1031.34 1031.64 1031.91 1032.21 1032.30 1032.26 1032.13 1031.96 1031.84 1031.82 1031.63 1031.25 1030.87 1030.56 1030.22 1029.90 1029.39
1027.61 1026.87 1024.68 1022.15 1020.94 1020.54 1020.75 1021.41 1021.58 1022.10 1022.53 1023.20 1023.92 1025.07 1026.64 1026.84 1026.77 1027.35 1027.86 1028.47 1029.19 1029.85 1030.33 1030.79 1031.36 1031.49 1031.84 1032.38 1032.59 1032.79 1032.87 1032.83 1032.66 1032.47 1032.34 1032.28 1032.05 1031.73 1031.44 1031.15 1030.71 1030.16 1029.59 1029.13
1027.14 1026.11 1023.78 1021.50 1020.86 1020.90 1021.52 1022.22 1021.98 1022.53 1023.22 1023.99 1025.16 1026.30 1027.07 1027.47 1027.96 1028.45 1028.98 1029.59 1030.15 1030.75 1031.34 1031.85 1032.07 1032.33 1032.84 1033.22 1033.37 1033.40 1033.22 1033.09 1032.98 1032.85 1032.62 1032.33 1032.09 1031.83 1031.53 1031.08 1030.58 1030.06 1029.44 1028.86
1026.88 1025.96 1023.31 1021.17 1021.09 1021.35 1021.63 1022.00 1022.50 1023.24 1024.15 1025.07 1026.07 1026.98 1027.76 1028.33 1028.86 1029.37 1029.98 1030.57 1031.11 1031.65 1032.25 1032.68 1032.96 1033.23 1033.68 1033.83 1033.85 1033.71 1033.65 1033.52 1033.34 1033.11 1032.92 1032.66 1032.36 1031.97 1031.57 1031.07 1030.54 1029.90 1029.22 1028.45
1024.26 1023.16 1021.64 1021.06 1021.05 1021.21 1021.64 1022.21 1023.06 1023.84 1024.89 1025.49 1026.55 1027.74 1028.51 1029.22 1029.81 1030.50 1031.02 1031.56 1032.09 1032.48 1033.10 1033.65 1034.02 1034.25 1034.42 1034.57 1034.37 1034.25 1034.07 1033.86 1033.62 1033.36 1033.07 1032.68 1032.31 1031.90 1031.47 1030.98 1030.35 1029.62 1028.98 1028.37
1023.08 1021.59 1021.48 1021.24 1021.31 1021.59 1022.05 1022.82 1023.55 1024.35 1025.29 1026.20 1027.18 1028.49 1029.43 1030.10 1030.81 1031.46 1032.03 1032.56 1033.03 1033.46 1034.06 1034.63 1034.88 1034.99 1035.04 1034.93 1034.74 1034.56 1034.38 1034.10 1033.79 1033.51 1033.11 1032.81 1032.43 1031.98 1031.43 1030.90 1030.24 1029.56 1028.93 1028.37
1022.16 1021.61 1021.58 1021.43 1021.59 1022.10 1022.98 1023.68 1024.54 1025.44 1026.09 1026.97 1027.70 1029.18 1029.85 1030.98 1031.82 1032.49 1033.03 1033.56 1033.94 1034.44 1034.90 1035.35 1035.50 1035.50 1035.43 1035.30 1035.13 1034.94 1034.64 1034.39 1034.04 1033.68 1033.25 1032.84 1032.44 1031.99 1031.43 1031.04 1030.58 1029.64 1029.00 1028.39
1020.57 1020.18 1020.62 1021.18 1021.66 1022.55 1023.45 1024.46 1025.18 1025.64 1027.19 1028.12 1028.59 1029.68 1030.73 1031.81 1032.69 1033.30 1033.87 1034.46 1034.82 1035.16 1035.52 1035.89 1035.96 1035.99 1035.93 1035.73 1035.58 1035.40 1035.07 1034.73 1034.42 1034.01 1033.60 1033.06 1032.44 1031.84 1031.69 1031.07 1030.31 1029.67 1029.13 1028.63
1019.64 1020.04 1021.13 1021.81 1022.58 1023.14 1024.03 1025.24 1026.06 1026.78 1027.56 1028.64 1029.96 1030.52 1031.59 1032.70 1033.60 1034.21 1034.73 1035.13 1035.39 1035.76 1036.10 1036.29 1036.38 1036.46 1036.45 1036.30 1036.08 1035.83 1035.61 1035.18 1034.85 1034.43 1033.89 1033.35 1032.80 1032.18 1031.35 1030.80 1030.63 1029.93 1029.24 1028.48
1019.85 1020.44 1022.21 1022.56 1023.44 1024.20 1024.77 1026.03 1027.00 1028.00 1028.96 1029.80 1030.66 1031.71 1032.62 1033.59 1034.53 1034.99 1035.33 1035.63 1035.93 1036.24 1036.55 1036.75 1036.79 1036.77 1036.85 1036.73 1036.49 1036.22 1035.90 1035.54 1035.17 1034.75 1034.27 1033.73 1033.17 1032.47 1032.09 1031.37 1030.46 1029.72 1029.15 1028.61
1020.18 1020.43 1021.02 1022.64 1024.04 1025.10 1025.87 1026.57 1027.94 1029.21 1030.15 1031.14 1031.88 1032.61 1033.56 1034.40 1035.08 1035.56 1035.85 1036.10 1036.44 1036.75 1037.02 1037.12 1037.07 1036.99 1037.12 1036.99 1036.84 1036.51 1036.06 1035.59 1035.33 1034.96 1034.44 1033.89 1033.43 1032.97 1032.43 1031.70 1030.95 1030.10 1029.20 1028.57
1020.94 1021.57 1022.55 1023.28 1024.60 1025.64 1026.42 1027.61 1028.39 1030.09 1031.01 1031.98 1032.73 1033.57 1034.33 1034.93 1035.59 1036.09 1036.36 1036.60 1036.82 1037.15 1037.36 1037.51 1037.34 1037.29 1037.18 1037.10 1037.03 1036.61 1036.26 1035.92 1035.50 1035.01 1034.60 1034.18 1033.65 1033.15 1032.51 1031.91 1031.21 1030.43 1029.67 1028.98
1020.86 1022.72 1023.61 1024.46 1025.17 1026.18 1027.04 1028.07 1029.06 1030.35 1031.56 1032.44 1033.40 1034.30 1034.89 1035.45 1036.04 1036.45 1036.78 1037.08 1037.31 1037.53 1037.62 1037.60 1037.63 1037.67 1037.66 1037.35 1037.27 1036.90 1036.53 1036.09 1035.69 1035.30 1034.88 1034.41 1033.89 1033.38 1032.94 1032.20 1031.49 1030.78 1030.04 1029.33
1018.75 1019.92 1021.56 1022.47 1024.47 1026.10 1027.72 1028.89 1030.04 1031.04 1032.03 1033.05 1033.88 1034.79 1035.46 1035.94 1036.43 1036.86 1037.15 1037.48 1037.70 1037.80 1037.87 1037.90 1037.91 1038.07 1037.91 1037.60 1037.45 1037.11 1036.76 1036.42 1036.05 1035.62 1035.16 1034.60 1034.28 1033.71 1033.12 1032.46 1031.82 1031.08 1030.22 1029.49
1019.80 1020.87 1022.53 1023.92 1025.08 1026.40 1027.93 1029.55 1030.76 1031.70 1032.67 1033.61 1034.51 1035.46 1036.12 1036.54 1036.90 1037.26 1037.51 1037.81 1037.90 1038.03 1038.22 1038.13 1038.18 1038.31 1038.14 1037.83 1037.71 1037.43 1037.08 1036.78 1036.38 1035.92 1035.40 1035.02 1034.52 1034.05 1033.46 1032.80 1032.17 1031.42 1030.67 1029.99
1021.17 1022.29 1023.49 1024.90 1026.16 1027.00 1028.75 1030.32 1031.28 1032.35 1033.37 1034.21 1035.20 1036.08 1036.88 1037.26 1037.48 1037.78 1038.00 1038.06 1038.40 1038.61 1038.38 1038.45 1038.57 1038.55 1038.43 1038.35 1038.20 1037.78 1037.44 1037.13 1036.70 1036.26 1035.81 1035.38 1034.88 1034.47 1033.81 1033.20 1032.56 1031.80 1031.24 1030.55
1022.02 1023.24 1024.51 1025.80 1027.35 1028.58 1029.64 1030.76 1031.73 1032.88 1034.08 1034.93 1035.62 1036.55 1037.12 1037.67 1038.08 1038.24 1038.27 1038.52 1038.77 1038.86 1038.72 1038.95 1039.04 1039.09 1039.00 1038.98 1038.51 1038.10 1037.87 1037.53 1037.13 1036.70 1036.21 1035.70 1035.35 1034.89 1034.27 1033.64 1033.01 1032.44 1031.72 1031.04
1022.95 1024.11 1025.61 1026.85 1028.12 1029.67 1030.81 1031.65 1032.49 1033.54 1034.66 1035.55 1036.36 1036.89 1037.42 1038.00 1038.35 1038.62 1038.88 1039.09 1039.19 1039.56 1039.27 1039.39 1039.42 1039.76 1039.58 1039.37 1038.83 1038.54 1038.32 1037.97 1037.57 1037.10 1036.63 1036.16 1035.82 1035.35 1034.74 1034.11 1033.53 1032.87 1032.17 1031.49
1024.06 1025.26 1026.50 1027.73 1028.96 1030.35 1031.60 1032.54 1033.41 1034.19 1035.12 1036.00 1036.65 1037.23 1037.62 1038.00 1038.46 1039.04 1039.52 1039.63 1039.69 1040.18 1039.85 1039.98 1040.30 1040.30 1040.29 1039.75 1039.45 1039.15 1038.82 1038.37 1037.92 1037.44 1037.07 1036.62 1036.25 1035.76 1035.21 1034.64 1034.01 1033.32 1032.60 1031.80
1025.03 1026.43 1027.50 1028.82 1029.86 1030.96 1032.26 1033.52 1034.09 1034.96 1035.60 1036.28 1036.87 1037.30 1037.69 1038.42 1039.17 1039.63 1039.84 1040.57 1041.03 1041.14 1040.83 1040.59 1040.80 1040.81 1040.91 1040.36 1040.03 1039.73 1039.26 1038.70 1038.17 1037.74 1037.31 1036.92 1036.49 1036.09 1035.64 1035.08 1034.38 1033.71 1032.97 1032.17
1025.89 1027.18 1028.34 1029.39 1030.44 1031.54 1032.54 1033.65 1034.58 1035.41 1035.97 1036.54 1037.20 1037.72 1038.17 1038.38 1039.09 1040.26 1040.65 1040.84 1040.90 1040.88 1041.05 1041.20 1041.37 1041.38 1041.12 1040.72 1040.30 1040.17 1039.57 1038.83 1038.38 1038.06 1037.51 1037.19 1036.77 1036.38 1036.00 1035.48 1034.83 1034.02 1033.25 1032.54
1026.61 1027.83 1028.87 1029.71 1030.59 1031.69 1032.83 1033.83 1034.77 1035.65 1036.36 1037.10 1037.84 1038.40 1038.97 1039.43 1039.86 1040.42 1040.87 1041.20 1041.26 1041.35 1041.51 1042.05 1042.01 1041.71 1041.34 1040.63 1040.50 1040.40 1039.74 1039.17 1038.72 1038.29 1037.98 1037.56 1037.08 1036.68 1036.36 1035.76 1035.13 1034.28 1033.53 1032.70
1027.61 1028.39 1029.49 1030.65 1031.58 1032.32 1033.16 1034.03 1034.98 1035.96 1036.45 1037.12 1037.95 1038.93 1039.53 1040.08 1040.61 1040.89 1041.89 1042.22 1042.32 1042.34 1042.68 1042.71 1042.06 1041.41 1041.23 1041.05 1040.79 1040.54 1040.04 1039.64 1039.36 1038.80 1038.36 1037.96 1037.42 1037.03 1036.54 1035.99 1035.25 1034.46 1033.54 1032.71
Wind_Speed
2 2 3 3 3 7 8 7 7 8 7 15 5 6 4 4 5 6 7 8 8 9 10 10 11 9 8 7 6 4 5 4 4 5 4 4 4 5 6 6 6 6 6 6
2 2 2 4 8 9 7 2 8 5 16 2 5 3 4 6 7 7 8 10 10 12 12 10 9 8 7 6 5 4 3 2 3 3 2 5 6 6 6 7 7 6 7 7
3 3 2 7 9 6 5 5 6 6 9 4 3 6 5 3 7 8 9 11 12 11 10 8 7 6 6 5 3 4 2 3 1 2 5 6 6 6 7 7 6 7 7 6
2 4 1 7 3 4 7 6 8 7 7 5 2 3 7 6 7 11 12 11 10 10 8 7 6 7 6 6 6 7 7 7 7 6 5 5 6 6 6 4 5 5 6 8
5 4 7 6 1 3 5 3 2 4 5 2 5 3 9 10 9 10 12 9 8 7 7 7 7 7 9 10 9 9 7 6 6 5 6 6 6 6 5 5 5 5 6 7
3 4 5 7 4 1 2 5 1 1 4 5 1 3 1 5 10 12 12 10 11 10 10 10 8 9 10 8 8 7 5 5 5 5 5 5 6 6 5 5 6 6 7 7
2 2 8 7 6 2 4 8 0 1 2 4 4 0 7 9 12 12 12 13 13 13 11 8 7 9 9 7 7 5 5 6 6 5 6 5 6 4 5 7 7 7 9 9
4 3 8 6 4 7 6 2 2 3 3 10 12 11 10 12 13 13 13 13 12 12 10 9 9 8 8 8 6 6 6 6 6 6 6 6 6 6 7 7 9 9 10 10
10 9 5 4 3 2 4 5 3 6 7 13 15 12 12 11 12 12 12 11 9 10 11 9 9 8 7 6 6 5 6 6 6 6 6 6 6 8 8 8 8 9 9 9
3 4 6 4 2 4 2 4 5 10 12 13 17 12 12 12 11 11 10 10 9 10 10 8 6 7 5 5 5 5 6 6 6 6 10 7 6 6 7 7 9 10 10 10
4 5 2 5 5 6 7 11 13 9 10 14 17 12 13 12 11 10 9 9 8 8 7 6 5 5 6 7 7 7 7 7 8 8 8 9 8 7 8 8 10 11 10 8
8 9 5 3 8 10 12 11 13 18 12 9 14 15 14 12 9 9 9 7 8 7 7 5 6 7 7 8 8 7 8 7 8 8 8 8 9 9 13 16 20 19 23 16
5 5 4 7 7 4 13 10 10 12 15 18 12 15 14 12 10 12 8 8 8 7 6 5 6 6 6 8 8 9 8 9 8 8 8 9 9 9 11 10 20 20 20 21
8 12 6 3 6 10 16 16 17 15 14 14 15 13 14 12 10 8 8 6 7 7 7 6 6 6 7 7 9 9 9 9 7 7 7 8 8 9 9 10 11 10 14 19
4 4 8 15 15 15 15 18 17 15 14 13 11 13 12 11 9 8 6 7 9 8 7 6 7 7 7 8 10 10 9 7 8 7 7 8 9 9 8 9 10 10 11 10
9 13 14 17 17 16 16 15 19 14 13 12 12 12 11 11 9 7 6 6 7 6 5 4 5 7 9 8 10 8 8 10 8 8 8 8 7 9 9 9 10 9 9 10
19 9 13 14 15 15 14 12 14 13 13 13 13 11 11 10 8 7 7 7 7 6 6 6 6 7 9 9 9 7 6 7 10 7 7 8 8 9 9 9 9 9 10 10
7 10 14 22 20 17 15 14 14 14 13 13 11 10 8 7 8 7 6 5 4 5 7 6 4 6 8 9 10 7 7 7 8 8 8 8 8 8 9 9 10 10 11 11
14 18 18 17 17 18 17 15 13 14 13 12 11 10 8 6 8 7 6 4 4 6 6 5 7 7 8 10 10 7 7 8 7 7 8 9 8 9 9 9 10 11 11 11
18 16 19 19 17 20 18 14 15 14 11 12 11 9 8 4 5 5 5 8 7 3 5 7 8 8 10 10 9 6 7 7 8 7 7 8 8 9 9 11 11 11 10 10
20 20 20 19 17 16 16 14 15 14 11 9 11 8 8 5 5 3 6 4 5 6 5 6 6 5 5 7 6 6 7 7 7 7 7 8 9 9 9 10 10 10 10 10
17 18 19 19 18 16 13 13 13 12 11 9 7 7 7 6 6 7 5 4 3 5 4 4 5 6 6 8 5 6 7 7 7 6 7 7 8 8 9 10 10 10 10 10
16 17 17 17 17 15 13 12 11 12 11 8 8 6 6 4 3 3 2 4 3 4 3 4 5 6 7 5 5 5 6 6 6 6 7 7 7 8 9 9 10 10 10 10
18 16 16 15 16 15 15 9 10 9 7 6 6 6 8 6 5 3 3 4 4 4 3 4 5 6 5 3 4 4 5 5 6 7 7 8 7 7 8 9 9 9 10 11
17 16 16 16 15 11 13 11 10 9 9 8 7 6 7 3 4 2 3 2 4 4 3 6 6 6 3 3 4 4 5 6 6 7 7 7 7 8 8 8 9 9 10 10
17 12 11 12 11 10 9 9 8 6 7 7 5 5 5 4 5 4 3 3 3 4 4 3 3 3 3 4 4 4 5 6 7 7 7 7 8 8 8 9 9 9 9 10
12 14 12 10 8 8 7 8 8 6 5 6 6 5 5 4 4 4 4 3 2 3 3 3 3 3 3 4 4 5 5 6 6 7 7 7 7 7 8 8 9 9 9 9
Wind_Direction
211 121 197 204 162 180 188 203 174 264 204 266 291 268 289 153 156 129 116 106 106 110 109 104 99 97 95 97 105 119 120 141 190 197 197 217 250 259 268 278 274 269 263 262
20 14 238 284 247 216 224 246 259 277 279 281 286 302 270 239 163 139 127 121 117 116 109 105 104 100 97 110 118 120 133 198 229 193 231 253 264 272 280 276 286 289 276 265
241 8 23 313 245 211 199 203 171 204 234 333 324 324 336 292 144 128 119 117 115 107 102 102 107 116 115 118 100 67 43 2 70 242 269 287 310 312 304 304 301 302 300 297
186 40 344 240 230 196 205 230 216 275 286 309 308 123 16 30 113 109 109 106 99 106 107 103 96 83 83 68 51 44 36 30 18 5 353 344 335 332 325 319 321 316 308 304
133 205 289 309 329 143 176 294 143 234 284 121 162 116 31 18 73 100 105 99 96 86 78 74 70 72 70 56 52 48 36 29 14 0 347 347 352 339 321 327 326 320 318 317
153 143 226 235 255 256 83 293 278 276 300 168 179 63 41 41 94 92 91 89 87 82 77 72 58 66 69 60 53 37 11 351 351 356 354 6 340 331 317 320 313 319 316 301
144 211 288 239 228 357 92 232 126 26 67 111 97 115 128 106 85 85 90 89 84 74 72 65 63 72 68 54 34 2 358 359 4 9 346 345 333 327 319 319 316 312 310 305
81 81 278 189 88 163 206 170 124 80 81 98 112 108 104 97 97 97 95 84 80 82 71 60 60 64 53 34 358 2 6 7 360 351 344 339 331 320 321 313 318 312 309 304
176 210 234 224 198 117 150 139 135 110 121 125 118 112 107 100 94 88 88 87 82 84 79 61 52 45 44 5 1 6 4 352 341 332 332 323 322 323 320 314 310 308 311 315
93 240 227 234 194 146 124 109 110 122 129 129 120 116 104 97 92 88 84 83 83 80 73 63 46 42 36 10 360 356 343 335 330 332 332 327 315 313 311 314 315 317 318 317
258 279 281 244 196 138 100 108 107 98 117 128 120 111 112 102 95 91 86 78 76 80 79 65 47 38 20 10 3 359 351 347 341 333 333 324 320 321 324 325 322 320 320 326
215 208 168 201 151 137 131 136 133 124 109 94 113 114 108 99 96 94 89 84 82 77 76 60 51 38 22 17 13 5 350 343 338 331 330 327 328 329 330 325 327 334 332 324
212 121 81 98 92 81 119 117 113 107 113 114 100 106 102 102 94 92 85 85 82 78 72 61 53 38 26 15 10 4 347 336 333 337 333 333 333 328 324 336 331 328 333 330
131 113 66 177 149 117 114 110 101 95 95 101 106 99 101 98 96 93 89 89 86 81 69 55 42 29 37 17 5 349 338 335 340 335 332 329 326 330 338 325 329 330 334 338
154 45 120 114 113 113 117 118 107 105 108 101 100 106 107 107 102 95 92 91 93 80 68 48 28 28 20 5 356 345 343 343 343 329 326 328 335 332 326 323 329 327 329 333
101 105 118 124 129 130 126 120 115 118 112 111 106 106 109 108 107 99 90 97 91 71 54 39 23 24 356 1 350 341 341 336 332 331 338 334 332 333 330 335 327 332 333 334
118 114 123 131 138 136 130 123 120 123 119 116 117 120 116 112 106 97 98 100 91 72 47 32 8 14 355 360 350 340 335 333 332 338 334 334 339 334 333 328 334 330 329 330
127 129 150 145 144 132 121 117 120 121 120 122 118 113 106 106 109 106 112 113 94 71 36 18 20 8 0 360 354 343 337 337 337 338 334 340 337 331 334 332 331 330 328 332
126 126 130 131 130 123 122 123 119 117 119 119 116 112 111 107 113 117 111 100 71 39 9 16 23 15 358 2 357 338 340 336 337 337 336 342 334 338 332 334 331 329 333 332
113 113 115 116 119 123 121 120 121 118 118 117 113 110 110 111 121 117 107 86 59 22 359 29 18 9 359 358 345 338 340 338 341 336 340 336 339 332 330 334 330 333 334 330
122 121 118 117 116 115 118 123 123 122 124 122 123 129 128 124 102 123 87 77 52 9 21 36 23 15 358 344 340 344 342 339 341 336 338 337 335 330 332 331 333 333 328 331
125 121 120 120 117 115 118 120 116 113 115 109 110 118 117 115 104 84 69 77 39 16 40 32 27 16 355 347 346 347 343 343 335 332 335 338 333 328 328 332 330 327 329 327
119 121 119 120 122 116 109 114 116 121 122 128 129 130 113 101 102 106 86 39 49 41 47 44 16 13 356 353 345 345 337 334 329 330 334 333 325 325 330 327 325 325 326 325
118 116 112 114 116 115 116 120 119 116 116 116 115 128 127 116 89 67 94 92 83 68 55 35 18 10 359 339 346 342 336 327 325 338 328 328 323 332 328 324 322 324 323 322
117 118 120 122 121 121 125 121 114 121 117 108 105 106 102 74 129 141 87 81 63 64 40 22 6 357 343 333 351 337 330 330 339 332 334 328 328 330 325 321 319 320 321 320
124 124 123 121 125 128 130 131 127 126 122 115 99 97 90 91 93 101 86 66 62 58 41 357 339 333 334 355 351 335 336 338 335 334 332 326 324 326 321 320 317 320 318 316
108 115 115 110 114 125 128 132 132 141 133 130 118 119 114 100 100 98 86 63 52 45 25 337 322 356 358 355 349 336 338 335 331 331 329 321 322 319 316 313 312 313 314 316